Home   Weather   Adak   Past weeks

Flag for USA Past Weather in Adak, Alaska, USA — Yesterday and Last 2 Weeks

Now
25 °F

Broken clouds.


Feels Like: 12 °F
Forecast: 26 / 29 °F
Wind: 15 mph from Northwest

Location: Adak

Current Time: Jan 19, 2017 at 1:37:38 pm

Latest Report: Jan 19, 2017 at 12:56 pm


Visibility: 10 mi

Pressure: 29.67 "Hg

Humidity: 59%

Dew Point: 12 °F

Location of AdakLocation

Past Weather in Adak — Graph

°F

Adak Temperature Yesterday

Maximum temperature yesterday: 28 °F (at 12:16 am)
Minimum temperature yesterday: 25 °F (at 10:36 am)
Average temperature yesterday: 27 °F

High & Low Weather Summary for the Past Weeks

 TemperatureHumidityPressure
High45 °F (Jan 7, 7:56 pm)81% (Jan 9, 4:36 am)30.71 "Hg (Jan 9, 4:36 am)
Low18 °F (Jan 14, 9:56 am)39% (Jan 19, 4:36 am)29.16 "Hg (Jan 17, 5:16 pm)
Average34 °F64%29.74 "Hg
* Reported Jan 4 12:16 pm — Jan 19 12:36 pm, Adak, Weather by CustomWeather, © 2017

Note: Actual official high and low records may vary slightly from our data, if they occured in-between our weather recording intervals... More about our weather records

Advertising

Adak Weather History for the Previous 24 Hours

Scroll right to see more
 ConditionsComfort  
Time TempWeatherWind HumidityBarometerVisibility
12:36 pm
Thu, Jan 19
25 °FBroken clouds.21 mph63%29.68 "Hg10 mi
12:16 pm27 °FScattered clouds.12 mph46%29.66 "Hg10 mi
11:56 am27 °FPassing clouds.15 mph46%29.65 "Hg10 mi
11:36 am25 °FBroken clouds.14 mph59%29.64 "Hg4 mi
11:16 am25 °FCloudy.16 mph63%29.63 "Hg1 mi
10:56 am25 °FMostly cloudy.21 mph69%29.63 "Hg2 mi
10:16 am27 °FBroken clouds.10 mph46%29.60 "Hg10 mi
9:56 am28 °FScattered clouds.10 mph40%29.59 "Hg10 mi
9:16 am27 °FScattered clouds.18 mph43%29.56 "Hg10 mi
8:56 am27 °FMostly cloudy.15 mph54%29.56 "Hg10 mi
8:36 am23 °FPartly cloudy.7 mph63%29.55 "Hg10 mi
7:56 am25 °FPartly cloudy.No wind59%29.54 "Hg10 mi
7:36 am25 °FPartly cloudy.15 mph69%29.53 "Hg5 mi
6:56 am25 °FMostly cloudy.26 mph69%29.51 "Hg1 mi
6:36 am25 °FPartly cloudy.13 mph63%29.50 "Hg10 mi
6:16 am25 °FOvercast.22 mph59%29.50 "Hg1 mi
5:56 am27 °FOvercast.18 mph54%29.48 "Hg10 mi
5:36 am27 °FPartly cloudy.24 mph50%29.47 "Hg10 mi
4:56 am27 °FPartly cloudy.29 mph59%29.47 "Hg7 mi
4:36 am27 °FPassing clouds.17 mph39%29.47 "Hg10 mi
3:56 am27 °FPassing clouds.18 mph43%29.46 "Hg10 mi
3:16 am27 °FClear.21 mph43%29.46 "Hg10 mi
2:36 am27 °FPassing clouds.14 mph43%29.45 "Hg10 mi
2:16 am28 °FMostly cloudy.14 mph40%29.45 "Hg10 mi
1:56 am27 °FOvercast.18 mph54%29.45 "Hg2 mi
1:36 am27 °FPassing clouds.16 mph46%29.43 "Hg10 mi
12:56 am27 °FPartly cloudy.16 mph54%29.42 "Hg10 mi
12:36 am27 °FMostly cloudy.14 mph54%29.42 "Hg10 mi
11:56 pm
Wed, Jan 18
25 °FOvercast.9 mph59%29.41 "Hg10 mi
11:36 pm25 °FMostly cloudy.3 mph63%29.41 "Hg10 mi
11:16 pm25 °FOvercast.No wind69%29.40 "Hg10 mi
10:56 pm25 °FOvercast.16 mph69%29.39 "Hg9 mi
10:36 pm25 °FMostly cloudy.16 mph69%29.39 "Hg10 mi
10:16 pm27 °FPartly cloudy.16 mph64%29.39 "Hg7 mi
9:56 pm27 °FOvercast.10 mph64%29.38 "Hg3 mi
9:36 pm27 °FPassing clouds.12 mph54%29.37 "Hg10 mi
8:56 pm27 °FPartly cloudy.14 mph46%29.36 "Hg10 mi
8:36 pm27 °FPassing clouds.16 mph46%29.35 "Hg10 mi
7:56 pm27 °FPassing clouds.16 mph46%29.35 "Hg10 mi
7:36 pm27 °FClear.15 mph46%29.34 "Hg10 mi
6:56 pm27 °FPassing clouds.16 mph46%29.33 "Hg10 mi
6:16 pm27 °FMostly cloudy.18 mph46%29.33 "Hg10 mi
5:56 pm27 °FPartly cloudy.17 mph54%29.32 "Hg8 mi
5:16 pm27 °FPassing clouds.22 mph50%29.31 "Hg10 mi
4:56 pm27 °FScattered clouds.24 mph64%29.31 "Hg5 mi
4:36 pm27 °FBroken clouds.22 mph46%29.30 "Hg10 mi
3:56 pm27 °FBroken clouds.12 mph50%29.31 "Hg10 mi
3:36 pm27 °FBroken clouds.18 mph64%29.31 "Hg2 mi
2:56 pm27 °FBroken clouds.23 mph46%29.31 "Hg10 mi
2:16 pm27 °FBroken clouds.21 mph46%29.32 "Hg8 mi
1:56 pm27 °FBroken clouds.22 mph46%29.32 "Hg5 mi
1:16 pm27 °FScattered clouds.15 mph50%29.32 "Hg10 mi
Weather by CustomWeather, © 2017

See weather overviewHow to use our weather pages